Regional Weather Roundup
Issued by NWS

Home | Current Version | Previous Version | Graphics & Text | Print | Product List | Glossary On
Versions: 1 2 3 4 5 6 7 8 9 10 11 12 13 14 15 16 17 18 19 20 21 22 23 24 25 26 27 28 29 30 31 32 33 34 35 36 37 38 39 40 41 42 43 44 45 46 47 48 49 50
000
ASUS43 KIND 261109
RWRIN

WEATHER ROUNDUP FOR INDIANA
NATIONAL WEATHER SERVICE INDIANAPOLIS IN
700 AM EDT WED JUL 26 2017

NOTE: "FAIR" INDICATES FEW OR NO CLOUDS BELOW 12,000 FEET WITH NO
SIGNIFICANT WEATHER AND/OR OBSTRUCTIONS TO VISIBILITY.

* - STATION DOES NOT REPORT WEATHER SUCH AS PRECIPITATION OR FOG.

+ - STATION NOT QUALITY CONTROLLED BY THE NATIONAL WEATHER SERVICE.
    USE DATA WITH CAUTION...ESPECIALLY DEWPOINT AND RELATIVE
    HUMIDITY OBSERVATIONS.

INZ001>003-010>013-019-020-261200-
NORTHWEST INDIANA

CITY           SKY/WX    TMP DP  RH WIND       PRES   REMARKS
GARY /AIRPORT/ MOCLDY    66  61  82 S7        30.11F
KNOX *+        CLEAR     61  59  94 S3        30.13S
LA PORTE +     CLEAR     62  59  91 S5        30.13F
MICHIGAN CITY+ PTCLDY    64  59  82 S6        30.12F
MONTICELLO +   CLEAR     62  60  95 SE3       30.12S
RENSSELAER +   CLEAR     59  57  94 CALM      30.13S
VALPARAISO     CLEAR     64  61  90 S5        30.12F

$$

LMZ046-743>745-261200-
SOUTHERN LAKE MICHIGAN

STATION/POSITION TIME  TEMP    WIND        PRES    WAVE
                       AIR SEA DIR/SP/G            HT
                 (UTC) (F)     (DEG/KT/KT) (MB)    (FT)
BURNS HARBOR     1040   67     190/  9/ 14 1019.6F
MICHIGAN CITY    1040   67     160/ 11/ 15   N/A
5NW MICH CITY    1100   68 74  190/ 14/ 17   N/A     1

$$

INZ004-005-014>016-021>024-261200-
NORTH CENTRAL INDIANA

CITY           SKY/WX    TMP DP  RH WIND       PRES   REMARKS
ELKHART        CLOUDY    63  59  88 SE5       30.14
GOSHEN         CLEAR     61  57  87 SE5       30.14F
LOGANSPORT +   CLEAR     57  57 100 SE3       30.14S
PERU/GRISSOM   CLEAR     60  60 100 SE5       30.13F
ROCHESTER +    CLEAR     63  61  94 E3        30.15S
SOUTH BEND     MOCLDY    64  60  87 S9        30.13F
WARSAW +       CLEAR     59  59 100 CALM      30.15S

$$

INZ006>009-017-018-025>027-261200-
NORTHEAST INDIANA

CITY           SKY/WX    TMP DP  RH WIND       PRES   REMARKS
AUBURN +       PTCLDY    59  55  88 CALM      30.17S FOG
FORT WAYNE     PTCLDY    60  57  89 CALM      30.17R
HUNTINGTON +   CLEAR     60  58  95 CALM      30.16R
KENDALLVILLE + CLOUDY    59  58  99 S5        30.16F

$$

INZ028-029-035-036-043>045-051>053-261200-
WEST CENTRAL INDIANA

CITY           SKY/WX    TMP DP  RH WIND       PRES   REMARKS
GREENCASTLE +  CLEAR     59  59 100 CALM      30.15R
LAFAYETTE      CLEAR     62  60  93 E3        30.12F
TERRE HAUTE    CLEAR     63  60  90 E3        30.12S

$$

INZ030>032-037>040-046>048-054>057-064-065-261200-
CENTRAL INDIANA

CITY           SKY/WX    TMP DP  RH WIND       PRES   REMARKS
CP ATTERBURY +   N/A     59  57  94 CALM      30.15S VSB 3/4
COLUMBUS       PTCLDY    59  57  94 CALM      30.15
FRANKFORT +    MOCLDY    61  60  96 S3        30.15F FOG
GREENWOOD *+   CLEAR    N/A N/A N/A SE5       30.15S
INDIANAPOLIS   PTCLDY    63  60  90 SE7       30.14R
-EAGLE CREEK   CLEAR     65  59  81 SE3       30.14R
KOKOMO +       CLEAR     60  59  96 S3        30.15F
MARION +       CLEAR     57  57 100 CALM      30.16S
MT COMFORT *+  CLEAR     59  59 100 SE3       30.16S
SHELBYVILLE    CLEAR     61  57  87 E5        30.14S
ZIONSVILLE +   CLEAR     59  58  97 CALM      30.16R

$$

INZ033-034-041-042-049-050-058-059-261200-
EAST CENTRAL INDIANA

CITY           SKY/WX    TMP DP  RH WIND       PRES   REMARKS
MUNCIE         CLEAR     63  58  83 S6        30.15F
RICHMOND +     CLEAR     52  52 100 SE3       30.17F FOG

$$

INZ060-061-067>069-081>083-085>088-261200-
SOUTHWEST INDIANA

CITY           SKY/WX    TMP DP  RH WIND       PRES   REMARKS
EVANSVILLE     CLEAR     69  67  93 CALM      30.09F
HUNTINGBURG *+ CLEAR     68  64  87 SE3       30.11S

$$

INZ062-063-066-070>080-084-089>092-261200-
SOUTH CENTRAL AND SOUTHEAST INDIANA

CITY           SKY/WX    TMP DP  RH WIND       PRES   REMARKS
BEDFORD +      MOCLDY    64  61  88 E3        30.12F
BLOOMINGTON    CLEAR     65  60  84 SE5       30.13S
MADISON *+     CLEAR     63  59  88 E3        30.16S
NORTH VERNON + CLEAR     61  59  94 CALM      30.15F
SEYMOUR +      CLEAR     61  61 100 CALM      30.14S FOG

$$





USA.gov is the U.S. government's official web portal to all federal, state and local government web resources and services.